EW5254 Weather Reports


time (UTC)temp
C
wind
direction
speed
KPH
gust
KPH
rain 1hr
cm
rain 24hr
cm
rain mn
cm
humidity
%
barometer
mb
20260507170046 14 48 17.7 25.7 0.00 0.00 0.00 67 1006.5
20260507164552 13 36 11.3 25.7 0.00 0.00 0.00 68 1006.6
20260507163045 13 11 11.3 20.9 0.00 0.00 0.00 67 1006.8
20260507161550 13 72 12.9 25.7 0.00 0.00 0.00 67 1006.7
20260507160110 13 49 12.9 25.7 0.00 0.00 0.00 68 1006.8
20260507154544 12 42 12.9 24.1 0.00 0.00 0.00 70 1006.6
20260507153044 12 30 16.1 24.1 0.00 0.00 0.00 72 1006.8
20260507151543 11 68 14.5 24.1 0.00 0.00 0.00 76 1006.9
20260507150043 10 74 12.9 20.9 0.00 0.00 0.00 80 1006.8
20260507144543 10 76 12.9 25.7 0.00 0.00 0.00 79 1006.8
20260507143040 10 79 14.5 22.5 0.00 0.00 0.00 75 1006.8
20260507141538 11 66 12.9 19.3 0.00 0.00 0.00 75 1006.8
20260507140045 9 74 14.5 24.1 0.00 0.00 0.00 75 1006.8
20260507134536 9 75 12.9 24.1 0.00 0.00 0.00 73 1006.5
20260507133035 9 59 16.1 29.0 0.00 0.00 0.00 71 1006.5
20260507131604 8 80 12.9 25.7 0.00 0.00 0.00 72 1006.3
20260507130029 8 85 16.1 27.4 0.00 0.00 0.00 71 1006.2
20260507124530 8 100 16.1 22.5 0.00 0.00 0.00 69 1006.0
20260507123030 8 89 14.5 25.7 0.00 0.00 0.00 68 1005.8
20260507121523 8 83 17.7 32.2 0.00 0.00 0.00 67 1005.6
20260507120029 9 83 17.7 27.4 0.00 0.00 0.00 65 1005.3
20260507114516 10 65 20.9 33.8 0.00 0.00 0.00 62 1005.3
20260507113026 10 102 16.1 30.6 0.00 0.00 0.00 58 1005.1
20260507111507 12 83 16.1 24.1 0.00 0.00 0.00 49 1004.7
20260507110004 15 49 6.4 12.9 0.00 0.00 0.00 48 1004.3
20260507104503 16 65 6.4 9.7 0.00 0.00 0.00 34 1004.3
20260507103100 16 76 6.4 9.7 0.00 0.00 0.00 36 1003.9
20260507101559 16 76 4.8 8.0 0.00 0.00 0.00 35 1004.0
20260507094611 16 71 6.4 12.9 0.00 0.00 0.00 35 1003.9
20260507093057 16 67 4.8 9.7 0.00 0.00 0.00 33 1003.8
20260507091555 17 65 4.8 8.0 0.00 0.00 0.00 34 1003.8
20260507090055 17 72 4.8 8.0 0.00 0.00 0.00 35 1003.9
20260507084559 17 72 6.4 12.9 0.00 0.00 0.00 34 1004.0
20260507083053 16 96 4.8 6.4 0.00 0.00 0.00 47 1004.1
20260507081552 16 96 3.2 9.7 0.00 0.00 0.00 48 1004.1
20260507080053 16 97 3.2 11.3 0.00 0.00 0.00 48 1004.3
20260507074552 16 96 4.8 9.7 0.00 0.00 0.00 49 1004.3
20260507073051 16 121 6.4 12.9 0.00 0.00 0.00 49 1004.3
20260507071548 16 108 8.0 12.9 0.00 0.00 0.00 51 1004.2
20260507070057 16 107 6.4 14.5 0.00 0.00 0.00 53 1004.1
20260507064547 16 97 8.0 16.1 0.00 0.00 0.00 56 1004.1
20260507063046 16 153 4.8 17.7 0.00 0.00 0.00 55 1004.2
20260507061541 17 98 6.4 9.7 0.00 0.00 0.00 52 1004.1
20260507060043 17 67 6.4 8.0 0.00 0.00 0.00 46 1003.9
20260507054539 17 125 0.0 3.2 0.00 0.00 0.00 39 1003.8
20260507053032 17 125 0.0 4.8 0.00 0.00 0.00 42 1003.8
20260507051530 17 125 0.0 11.3 0.00 0.00 0.00 40 1003.9
20260507050049 17 119 4.8 9.7 0.00 0.00 0.00 41 1003.8
20260507044525 18 111 3.2 12.9 0.00 0.00 0.00 34 1003.8
20260507043025 18 102 6.4 11.3 0.00 0.00 0.00 29 1003.9
20260507041526 18 109 1.6 9.7 0.00 0.00 0.00 26 1003.8
20260507040024 20 28 3.2 8.0 0.00 0.00 0.00 22 1003.5
20260507034526 20 175 1.6 11.3 0.00 0.00 0.00 22 1003.2
20260507033029 20 191 8.0 16.1 0.00 0.00 0.00 21 1003.1
20260507031517 21 189 8.0 14.5 0.00 0.00 0.00 19 1003.0
20260507030016 21 190 6.4 9.7 0.00 0.00 0.00 18 1002.7
20260507024517 21 190 6.4 9.7 0.00 0.00 0.00 18 1002.5
20260507023015 21 197 6.4 9.7 0.00 0.00 0.00 18 1002.2
20260507021521 21 209 4.8 8.0 0.00 0.00 0.00 18 1002.1
20260507020020 21 209 4.8 9.7 0.00 0.00 0.00 19 1001.7
20260507014519 21 207 6.4 9.7 0.00 0.00 0.00 18 1001.5
20260507013012 22 224 4.8 9.7 0.00 0.00 0.00 18 1001.3
20260507011517 23 242 8.0 12.9 0.00 0.00 0.00 17 1001.2
20260507010026 23 252 9.7 16.1 0.00 0.00 0.00 16 1001.0
20260507004510 23 240 9.7 16.1 0.00 0.00 0.00 16 1000.9
20260507003009 23 244 8.0 17.7 0.00 0.00 0.00 17 1000.8
20260507001509 23 252 11.3 19.3 0.00 0.00 0.00 17 1000.6
20260507000008 23 240 12.9 24.1 0.00 0.00 0.00 16 1000.6
20260506234508 23 244 9.7 19.3 0.00 0.00 0.00 15 1000.6
20260506233008 23 325 9.7 20.9 0.00 0.00 0.00 16 1000.6
20260506231506 23 290 12.9 24.1 0.00 0.00 0.00 15 1000.6
20260506230005 23 268 14.5 25.7 0.00 0.00 0.00 15 1000.5
20260506224505 24 249 17.7 25.7 0.00 0.00 0.00 14 1000.5
20260506223004 24 290 17.7 27.4 0.00 0.00 0.00 13 1000.5
20260506221504 25 274 12.9 25.7 0.00 0.00 0.00 13 1000.4
20260506220003 25 271 11.3 25.7 0.00 0.00 0.00 14 1000.3
20260506214502 25 297 14.5 30.6 0.00 0.00 0.00 14 1000.4
20260506213001 25 279 16.1 27.4 0.00 0.00 0.00 13 1000.5
20260506211559 25 251 12.9 20.9 0.00 0.00 0.00 16 1000.6
20260506210057 25 312 16.1 40.2 0.00 0.00 0.00 16 1000.8
20260506204601 24 235 3.2 14.5 0.00 0.00 0.00 19 1001.0
20260506203056 24 246 12.9 29.0 0.00 0.00 0.00 18 1001.3
20260506201557 25 290 12.9 22.5 0.00 0.00 0.00 18 1001.2
20260506200108 24 274 8.0 17.7 0.00 0.00 0.00 19 1001.4
20260506194606 23 259 11.3 22.5 0.00 0.00 0.00 19 1001.6
20260506193051 23 252 4.8 20.9 0.00 0.00 0.00 18 1001.8
20260506191550 24 274 14.5 29.0 0.00 0.00 0.00 17 1001.8
20260506190046 23 244 9.7 37.0 0.00 0.00 0.00 19 1001.8
20260506184546 23 309 14.5 22.5 0.00 0.00 0.00 23 1002.0
20260506183059 22 251 4.8 20.9 0.00 0.00 0.00 21 1002.1
20260506181549 22 355 6.4 20.9 0.00 0.00 0.00 25 1002.3
20260506180040 22 355 4.8 20.9 0.00 0.00 0.00 24 1002.3
20260506174539 22 266 12.9 22.5 0.00 0.00 0.00 24 1002.5
20260506173040 22 256 9.7 20.9 0.00 0.00 0.00 25 1002.5
20260506171543 21 284 3.2 22.5 0.00 0.00 0.00 26 1002.6